Hilton Head Island, SC

9:37 PM EST on November 21, 2017 (GMT -0500)
Hilton Head

Weather History for KHXD - October, 2011

Change the Weather History Date:

Sunday, October 2, 2011

  Actual Average Record
Temperature  
Mean Temperature 61 °F -  
Max Temperature 71 °F 82 °F 93 °F (1977)
Min Temperature 51 °F 62 °F 33 °F (2004)
Degree Days  
Heating Degree Days 4    
Growing Degree Days 11 (Base 50)    
Moisture  
Dew Point 45 °F    
Average Humidity 61    
Maximum Humidity 94    
Minimum Humidity 38    
Precipitation  
Precipitation 0.00 in - - ()
Sea Level Pressure  
Sea Level Pressure 30.04 in    
Wind  
Wind Speed 7 mph (NNW)    
Max Wind Speed 13 mph    
Max Gust Speed 18 mph    
Visibility 10 miles    
Events      
Averages and records for this station are not official NWS values.
T = Trace of Precipitation, MM = Missing Value Source: NWS Daily Summary

Daily Weather History Graph

Daily Weather History Graph

Search for Another Location

Airport or City:

Trip Planner

Search our weather history database for the weather conditions in past years. The results will help you decide how hot, cold, wet, or windy it might be!

Date:

Astronomy

Oct. 02, 2011 Rise Set
Actual Time 7:17 AM EDT 7:06 PM EDT
Civil Twilight 6:52 AM EDT 7:31 PM EDT
Nautical Twilight 6:24 AM EDT 7:59 PM EDT
Astronomical Twilight 5:55 AM EDT 8:27 PM EDT
Moon 1:02 PM EDT (10/2) 11:22 PM EDT (10/2)
Length of Visible Light 12h 38m
Length of Day
11h 49m
Waxing Crescent, 34% of the Moon is Illuminated
Oct 2
Waxing Crescent
Oct 3
First Quarter
Oct 11
Full
Oct 19
Last Quarter
Oct 26
New

Hourly Weather History & Observations

Time (EDT) Temp. Dew Point Humidity Pressure Visibility Wind Dir Wind Speed Gust Speed Precip Events Conditions
12:15 AM 60.8 °F 41.0 °F 48% 30.02 in 10.0 mi North 8.1 mph - 0.00 in   Clear
12:35 AM 60.8 °F 39.2 °F 45% 30.03 in 10.0 mi North 10.4 mph 16.1 mph 0.00 in   Clear
12:55 AM 60.8 °F 41.0 °F 48% 30.03 in 10.0 mi North 8.1 mph - 0.00 in   Clear
1:15 AM 60.8 °F 41.0 °F 48% 30.03 in 10.0 mi North 8.1 mph - 0.00 in   Clear
2:15 AM 59.0 °F 39.2 °F 48% 30.03 in 10.0 mi North 10.4 mph 17.3 mph 0.00 in   Clear
2:35 AM 59.0 °F 39.2 °F 48% 30.04 in 10.0 mi North 10.4 mph - 0.00 in   Clear
2:55 AM 57.2 °F 39.2 °F 51% 30.03 in 10.0 mi North 12.7 mph 18.4 mph 0.00 in   Clear
3:15 AM 57.2 °F 41.0 °F 55% 30.03 in 10.0 mi North 10.4 mph - 0.00 in   Clear
3:35 AM 57.2 °F 41.0 °F 55% 30.03 in 10.0 mi North 10.4 mph - 0.00 in   Clear
3:55 AM 57.2 °F 41.0 °F 55% 30.03 in 10.0 mi North 9.2 mph 17.3 mph 0.00 in   Clear
4:15 AM 57.2 °F 39.2 °F 51% 30.03 in 10.0 mi North 9.2 mph - 0.00 in   Clear
4:35 AM 55.4 °F 41.0 °F 58% 30.04 in 10.0 mi North 5.8 mph - 0.00 in   Clear
4:55 AM 55.4 °F 42.8 °F 63% 30.04 in 10.0 mi North 4.6 mph - 0.00 in   Clear
5:15 AM 53.6 °F 42.8 °F 67% 30.04 in 10.0 mi North 3.5 mph - 0.00 in   Clear
5:35 AM 51.8 °F 42.8 °F 71% 30.04 in 10.0 mi Calm Calm - 0.00 in   Clear
5:55 AM 51.8 °F 44.6 °F 76% 30.04 in 10.0 mi WNW 3.5 mph - 0.00 in   Clear
6:15 AM 51.8 °F 44.6 °F 76% 30.05 in 10.0 mi NNW 4.6 mph - 0.00 in   Clear
7:50 AM 55.4 °F 41.0 °F 58% 30.06 in 10.0 mi North 6.9 mph - N/A   Clear
8:50 AM 55.4 °F 42.8 °F 63% 30.07 in 10.0 mi North 9.2 mph - N/A   Clear
9:50 AM 57.2 °F 42.8 °F 59% 30.08 in 10.0 mi North 6.9 mph - N/A   Clear
10:50 AM 62.6 °F 44.6 °F 52% 30.09 in 10.0 mi NNW 4.6 mph - N/A   Clear
11:50 AM 64.4 °F 44.6 °F 49% 30.08 in 10.0 mi North 4.6 mph - N/A   Clear
12:50 PM 66.2 °F 44.6 °F 46% 30.06 in 10.0 mi SE 5.8 mph 16.1 mph N/A   Clear
1:50 PM 68.0 °F 44.6 °F 43% 30.04 in 10.0 mi SSW 4.6 mph - N/A   Clear
2:50 PM 69.8 °F 46.4 °F 43% 30.01 in 10.0 mi West 5.8 mph - N/A   Clear
3:50 PM 71.6 °F 44.6 °F 38% 30.00 in 10.0 mi WSW 6.9 mph - N/A   Clear
4:50 PM 71.6 °F 44.6 °F 38% 29.99 in 10.0 mi West 10.4 mph - N/A   Clear
5:50 PM 71.6 °F 44.6 °F 38% 30.00 in 10.0 mi WSW 8.1 mph - N/A   Clear
7:50 PM 60.8 °F 51.8 °F 72% 30.02 in 10.0 mi Calm Calm - N/A   Clear
9:15 PM 57.2 °F 50.0 °F 77% 30.05 in 10.0 mi Calm Calm - 0.00 in   Clear
9:35 PM 57.2 °F 51.8 °F 82% 30.06 in 10.0 mi Calm Calm - 0.00 in   Clear
9:55 PM 55.4 °F 51.8 °F 88% 30.06 in 10.0 mi Calm Calm - 0.00 in   Clear
10:15 PM 55.4 °F 50.0 °F 82% 30.06 in 10.0 mi Calm Calm - 0.00 in   Clear
10:35 PM 55.4 °F 50.0 °F 82% 30.06 in 10.0 mi Calm Calm - 0.00 in   Clear
11:15 PM 53.6 °F 51.8 °F 94% 30.06 in 10.0 mi Calm Calm - 0.00 in   Clear
11:35 PM 53.6 °F 51.8 °F 94% 30.06 in 10.0 mi Calm Calm - 0.00 in   Clear
11:55 PM 53.6 °F 51.8 °F 94% 30.06 in 10.0 mi Calm Calm - 0.00 in   Clear